Weather History for Pine River, MN

Change the Weather History Date:

Wednesday, October 3, 2012

  Actual Average Record
Temperature  
Mean Temperature 52 °F -  
Max Temperature 71 °F 58 °F 78 °F (2011)
Min Temperature 33 °F 36 °F 21 °F (1999)
Degree Days  
Heating Degree Days 13    
Growing Degree Days 2 (Base 50)    
Moisture  
Dew Point 38 °F    
Average Humidity 59    
Maximum Humidity 87    
Minimum Humidity 25    
Precipitation  
Precipitation 0.00 in - - ()
Sea Level Pressure  
Sea Level Pressure 29.89 in    
Wind  
Wind Speed 3 mph (NE)    
Max Wind Speed 14 mph    
Max Gust Speed 18 mph    
Visibility 10 miles    
Events      
Averages and records for this station are not official NWS values.
T = Trace of Precipitation, MM = Missing Value Source: NWS Daily Summary

Daily Weather History Graph

Daily Weather History Graph

Search for Another Location

Airport:

Trip Planner

Search our weather history database for the weather conditions in past years. The results will help you decide how hot, cold, wet, or windy it might be!

Date:

Astronomy

Oct. 03, 2012 Rise Set
Actual Time 7:19 AM CDT 6:52 PM CDT
Civil Twilight 6:49 AM CDT 7:22 PM CDT
Nautical Twilight 6:14 AM CDT 7:57 PM CDT
Astronomical Twilight 5:38 AM CDT 8:33 PM CDT
Moon 8:29 PM CDT (10/3) 10:58 AM CDT (10/3)
Length of Visible Light 12h 33m
Length of Day
11h 32m
Waning Gibbous, 88% of the Moon is Illuminated
Oct 3
Waning Gibbous
Oct 8
Last Quarter
Oct 15
New
Oct 21
First Quarter
Oct 29
Full

Hourly Weather History & Observations

Time (CDT) Temp. Dew Point Humidity Pressure Visibility Wind Dir Wind Speed Gust Speed Precip Events Conditions
12:13 AM 46.4 °F 35.6 °F 66% 29.86 in 10.0 mi Calm Calm - N/A   Clear
12:32 AM 46.4 °F 35.6 °F 66% 29.87 in 10.0 mi Calm Calm - N/A   Clear
12:52 AM 46.4 °F 33.8 °F 62% 29.87 in 10.0 mi Calm Calm - N/A   Clear
1:13 AM 42.8 °F 33.8 °F 70% 29.87 in 10.0 mi Calm Calm - N/A   Clear
1:33 AM 44.6 °F 35.6 °F 71% 29.87 in 10.0 mi Calm Calm - N/A   Clear
1:53 AM 44.6 °F 35.6 °F 71% 29.87 in 10.0 mi Calm Calm - N/A   Clear
2:13 AM 41.0 °F 33.8 °F 76% 29.87 in 10.0 mi Calm Calm - N/A   Clear
2:33 AM 39.2 °F 33.8 °F 81% 29.88 in 10.0 mi Calm Calm - N/A   Clear
2:53 AM 41.0 °F 33.8 °F 76% 29.88 in 10.0 mi Calm Calm - N/A   Clear
3:13 AM 37.4 °F 33.8 °F 87% 29.88 in 10.0 mi Calm Calm - N/A   Clear
3:33 AM 37.4 °F 33.8 °F 87% 29.87 in 10.0 mi Calm Calm - N/A   Clear
3:53 AM 39.2 °F 33.8 °F 81% 29.87 in 10.0 mi Calm Calm - N/A   Clear
4:13 AM 37.4 °F 33.8 °F 87% 29.87 in 10.0 mi Calm Calm - N/A   Clear
4:32 AM 39.2 °F 33.8 °F 81% 29.87 in 10.0 mi Calm Calm - N/A   Clear
4:52 AM 37.4 °F 33.8 °F 87% 29.88 in 10.0 mi Calm Calm - N/A   Clear
5:13 AM 35.6 °F 30.2 °F 81% 29.89 in 10.0 mi Calm Calm - N/A   Clear
5:33 AM 35.6 °F 30.2 °F 81% 29.89 in 10.0 mi Calm Calm - N/A   Clear
5:53 AM 35.6 °F 30.2 °F 81% 29.90 in 10.0 mi Calm Calm - N/A   Clear
6:13 AM 33.8 °F 30.2 °F 87% 29.90 in 10.0 mi Calm Calm - N/A   Clear
6:33 AM 33.8 °F 30.2 °F 87% 29.90 in 10.0 mi Calm Calm - N/A   Clear
6:53 AM 35.6 °F 30.2 °F 81% 29.91 in 10.0 mi Calm Calm - N/A   Clear
7:13 AM 33.8 °F 30.2 °F 87% 29.92 in 10.0 mi Calm Calm - N/A   Clear
7:33 AM 33.8 °F 30.2 °F 87% 29.92 in 10.0 mi Calm Calm - N/A   Clear
7:53 AM 33.8 °F 30.2 °F 87% 29.92 in 10.0 mi Calm Calm - N/A   Clear
8:13 AM 37.4 °F 33.8 °F 87% 29.93 in 10.0 mi Calm Calm - N/A   Clear
8:32 AM 39.2 °F 35.6 °F 87% 29.92 in 10.0 mi Calm Calm - N/A   Clear
8:53 AM 44.6 °F 37.4 °F 76% 29.91 in 10.0 mi Calm Calm - N/A   Clear
9:13 AM 46.4 °F 37.4 °F 71% 29.92 in 10.0 mi Calm Calm - N/A   Clear
9:33 AM 50.0 °F 35.6 °F 58% 29.92 in 10.0 mi Calm Calm - N/A   Clear
9:52 AM 53.6 °F 37.4 °F 54% 29.92 in 10.0 mi Calm Calm - N/A   Clear
10:13 AM 57.2 °F 39.2 °F 51% 29.93 in 10.0 mi ENE 5.8 mph - N/A   Clear
10:33 AM 60.8 °F 39.2 °F 45% 29.93 in 10.0 mi NE 5.8 mph - N/A   Clear
10:53 AM 62.6 °F 39.2 °F 42% 29.94 in 10.0 mi NNE 5.8 mph - N/A   Clear
11:13 AM 64.4 °F 39.2 °F 40% 29.93 in 10.0 mi NNE 5.8 mph - N/A   Clear
11:32 AM 66.2 °F 39.2 °F 37% 29.91 in 10.0 mi ENE 4.6 mph - N/A   Clear
11:53 AM 68.0 °F 39.2 °F 35% 29.90 in 10.0 mi East 9.2 mph - N/A   Clear
12:12 PM 68.0 °F 42.8 °F 40% 29.90 in 10.0 mi SE 8.1 mph - N/A   Clear
12:33 PM 68.0 °F 41.0 °F 37% 29.90 in 10.0 mi SE 10.4 mph - N/A   Clear
12:51 PM 68.0 °F 41.0 °F 37% 29.90 in 10.0 mi SE 10.4 mph - N/A   Clear
1:12 PM 69.8 °F 39.2 °F 33% 29.89 in 10.0 mi ESE 9.2 mph - N/A   Clear
1:33 PM 69.8 °F 39.2 °F 33% 29.88 in 10.0 mi East 8.1 mph - N/A   Clear
1:52 PM 69.8 °F 39.2 °F 33% 29.88 in 10.0 mi SE 8.1 mph - N/A   Clear
2:13 PM 71.6 °F 39.2 °F 31% 29.88 in 10.0 mi SE 12.7 mph 17.3 mph N/A   Clear
2:32 PM 71.6 °F 39.2 °F 31% 29.88 in 10.0 mi ESE 6.9 mph 18.4 mph N/A   Clear
2:53 PM 71.6 °F 37.4 °F 29% 29.88 in 10.0 mi ESE 6.9 mph - N/A   Clear
3:13 PM 71.6 °F 37.4 °F 29% 29.88 in 10.0 mi East 8.1 mph - N/A   Clear
3:33 PM 71.6 °F 35.6 °F 27% 29.88 in 10.0 mi ENE 5.8 mph - N/A   Clear
3:53 PM 71.6 °F 33.8 °F 25% 29.87 in 10.0 mi East 9.2 mph - N/A   Clear
4:12 PM 71.6 °F 33.8 °F 25% 29.87 in 10.0 mi ESE 8.1 mph - N/A   Clear
4:33 PM 71.6 °F 35.6 °F 27% 29.87 in 10.0 mi East 3.5 mph - N/A   Clear
4:53 PM 71.6 °F 33.8 °F 25% 29.87 in 10.0 mi East 6.9 mph - N/A   Clear
5:13 PM 71.6 °F 33.8 °F 25% 29.87 in 10.0 mi SE 4.6 mph - N/A   Clear
5:33 PM 69.8 °F 33.8 °F 27% 29.88 in 10.0 mi East 3.5 mph - N/A   Clear
5:52 PM 66.2 °F 42.8 °F 43% 29.88 in 7.0 mi North 8.1 mph - N/A   Clear
6:13 PM 64.4 °F 44.6 °F 49% 29.89 in 10.0 mi North 8.1 mph - N/A   Clear
6:33 PM 62.6 °F 44.6 °F 52% 29.90 in 10.0 mi North 12.7 mph - N/A   Clear
6:52 PM 60.8 °F 44.6 °F 55% 29.90 in 10.0 mi North 9.2 mph - N/A   Clear
7:12 PM 60.8 °F 44.6 °F 55% 29.89 in 10.0 mi North 9.2 mph - N/A   Clear
7:33 PM 59.0 °F 42.8 °F 55% 29.89 in 10.0 mi North 10.4 mph - N/A   Clear
7:52 PM 59.0 °F 44.6 °F 59% 29.91 in 10.0 mi North 6.9 mph - N/A   Clear
8:13 PM 59.0 °F 44.6 °F 59% 29.91 in 10.0 mi NNW 5.8 mph - N/A   Clear
8:33 PM 57.2 °F 44.6 °F 63% 29.91 in 10.0 mi North 11.5 mph - N/A   Clear
8:53 PM 57.2 °F 44.6 °F 63% 29.91 in 10.0 mi NNE 12.7 mph - N/A   Clear
9:13 PM 57.2 °F 42.8 °F 59% 29.91 in 10.0 mi North 6.9 mph - N/A   Clear
9:32 PM 57.2 °F 42.8 °F 59% 29.91 in 10.0 mi North 9.2 mph - N/A   Clear
9:53 PM 55.4 °F 42.8 °F 63% 29.90 in 10.0 mi North 10.4 mph - N/A   Clear
10:13 PM 55.4 °F 42.8 °F 63% 29.90 in 10.0 mi North 10.4 mph - N/A   Clear
10:32 PM 55.4 °F 42.8 °F 63% 29.90 in 10.0 mi North 11.5 mph - N/A   Clear
10:53 PM 55.4 °F 42.8 °F 63% 29.90 in 10.0 mi North 13.8 mph 17.3 mph N/A   Clear
11:11 PM 55.4 °F 42.8 °F 63% 29.89 in 10.0 mi North 8.1 mph - N/A   Clear
11:33 PM 53.6 °F 42.8 °F 67% 29.88 in 10.0 mi NNE 11.5 mph 16.1 mph N/A   Clear
11:53 PM 53.6 °F 42.8 °F 67% 29.88 in 10.0 mi NNE 10.4 mph - N/A   Clear